Weather History for Hailey, ID

Change the Weather History Date:

Sunday, November 6, 2011

  Actual Average Record
Temperature  
Mean Temperature 30 °F -  
Max Temperature 44 °F 46 °F 71 °F (1999)
Min Temperature 17 °F 25 °F 10 °F (1996)
Degree Days  
Heating Degree Days 34    
Moisture  
Dew Point 15 °F    
Average Humidity 73    
Maximum Humidity 93    
Minimum Humidity 25    
Precipitation  
Precipitation 0.00 in - - ()
Sea Level Pressure  
Sea Level Pressure 29.87 in    
Wind  
Wind Speed 6 mph (NW)    
Max Wind Speed 8 mph    
Max Gust Speed -    
Visibility 9 miles    
Events Snow    
Averages and records for this station are not official NWS values.
T = Trace of Precipitation, MM = Missing Value Source: NWS Daily Summary

Daily Weather History Graph

Daily Weather History Graph

Search for Another Location

Airport:

Trip Planner

Search our weather history database for the weather conditions in past years. The results will help you decide how hot, cold, wet, or windy it might be!

Date:

Astronomy

Nov. 06, 2011 Rise Set
Actual Time 7:18 AM MST 5:22 PM MST
Civil Twilight 6:48 AM MST 5:52 PM MST
Nautical Twilight 6:14 AM MST 6:26 PM MST
Astronomical Twilight 5:41 AM MST 6:59 PM MST
Moon 3:12 PM MST (11/6) 3:23 AM MST (11/6)
Length of Visible Light 11h 03m
Length of Day
10h 03m
Waxing Gibbous, 86% of the Moon is Illuminated
Nov 6
Waxing Gibbous
Nov 10
Full
Nov 18
Last Quarter
Nov 24
New
Dec 2
First Quarter

Hourly Weather History & Observations

Time (MST) Temp. Windchill Dew Point Humidity Pressure Visibility Wind Dir Wind Speed Gust Speed Precip Events Conditions
12:15 AM 21.2 °F 12.6 °F 10.4 °F 63% 29.80 in 10.0 mi WNW 6.9 mph - N/A   Clear
12:35 AM 19.4 °F 11.5 °F 10.4 °F 68% 29.80 in 10.0 mi NW 5.8 mph - N/A   Clear
12:55 AM 19.4 °F - 10.4 °F 68% 29.81 in 10.0 mi Calm Calm - N/A   Clear
1:15 AM 17.6 °F 10.7 °F 10.4 °F 73% 29.81 in 10.0 mi NNW 4.6 mph - N/A   Clear
1:35 AM 17.6 °F 9.3 °F 10.4 °F 73% 29.82 in 10.0 mi NW 5.8 mph - N/A   Scattered Clouds
1:55 AM 19.4 °F 10.4 °F 10.4 °F 68% 29.82 in 10.0 mi NW 6.9 mph - N/A   Overcast
1:15 AM 19.4 °F 9.5 °F 10.4 °F 68% 29.82 in 10.0 mi NW 8.1 mph - N/A   Overcast
1:35 AM 19.4 °F 9.5 °F 10.4 °F 68% 29.82 in 10.0 mi NW 8.1 mph - N/A   Overcast
1:55 AM 19.4 °F 9.5 °F 10.4 °F 68% 29.82 in 10.0 mi NW 8.1 mph - N/A   Mostly Cloudy
2:15 AM 19.4 °F 9.5 °F 10.4 °F 68% 29.82 in 10.0 mi NW 8.1 mph - N/A   Scattered Clouds
2:35 AM 19.4 °F 9.5 °F 10.4 °F 68% 29.83 in 10.0 mi NW 8.1 mph - N/A   Mostly Cloudy
2:55 AM 19.4 °F 10.4 °F 10.4 °F 68% 29.82 in 10.0 mi NW 6.9 mph - N/A   Scattered Clouds
3:15 AM 19.4 °F 10.4 °F 10.4 °F 68% 29.82 in 10.0 mi NW 6.9 mph - N/A   Scattered Clouds
3:35 AM 19.4 °F 10.4 °F 10.4 °F 68% 29.82 in 10.0 mi NNW 6.9 mph - N/A   Scattered Clouds
3:55 AM 17.6 °F 8.2 °F 10.4 °F 73% 29.82 in 10.0 mi NW 6.9 mph - N/A   Scattered Clouds
4:15 AM 17.6 °F 8.2 °F 10.4 °F 73% 29.83 in 10.0 mi NW 6.9 mph - N/A   Mostly Cloudy
4:35 AM 19.4 °F 9.5 °F 10.4 °F 68% 29.83 in 10.0 mi NW 8.1 mph - N/A   Overcast
4:55 AM 19.4 °F 10.4 °F 10.4 °F 68% 29.83 in 10.0 mi NW 6.9 mph - N/A   Overcast
5:15 AM 19.4 °F 10.4 °F 10.4 °F 68% 29.83 in 10.0 mi NW 6.9 mph - N/A   Overcast
5:35 AM 19.4 °F 10.4 °F 10.4 °F 68% 29.83 in 10.0 mi NW 6.9 mph - N/A   Overcast
5:55 AM 19.4 °F 9.5 °F 10.4 °F 68% 29.84 in 10.0 mi NW 8.1 mph - N/A   Scattered Clouds
6:47 AM 17.6 °F 8.2 °F 10.4 °F 73% 29.84 in 10.0 mi WNW 6.9 mph - N/A   Mostly Cloudy
7:50 AM 44.6 °F 41.4 °F 10.4 °F 25% 29.86 in 10.0 mi WNW 5.8 mph - N/A   Overcast
10:47 AM 26.6 °F - 19.4 °F 74% 29.91 in 2.5 mi Calm Calm - N/A Snow Light Snow
11:55 AM 30.2 °F 23.4 °F 24.8 °F 80% 29.90 in 5.0 mi ESE 6.9 mph - N/A Snow Light Snow
12:47 PM 30.2 °F 23.4 °F 23.0 °F 75% 29.89 in 7.0 mi ESE 6.9 mph - N/A   Overcast
1:50 PM 30.2 °F 25.4 °F 23.0 °F 75% 29.89 in 7.0 mi SE 4.6 mph - N/A   Scattered Clouds
2:47 PM 32.0 °F 25.6 °F 23.0 °F 69% 29.89 in 7.0 mi South 6.9 mph - N/A   Scattered Clouds
3:50 PM 32.0 °F 25.6 °F 24.8 °F 75% 29.94 in 10.0 mi ESE 6.9 mph - N/A   Scattered Clouds
4:50 PM 30.2 °F 24.3 °F 24.8 °F 80% 29.91 in 10.0 mi SE 5.8 mph - N/A   Scattered Clouds
5:47 PM 28.4 °F 24.6 °F 24.8 °F 86% 29.92 in 10.0 mi East 3.5 mph - N/A   Scattered Clouds
6:47 PM 26.6 °F 21.2 °F 23.0 °F 86% 29.94 in 10.0 mi SE 4.6 mph - N/A   Scattered Clouds
7:47 PM 28.4 °F - 24.8 °F 86% 29.96 in 10.0 mi Calm Calm - N/A   Mostly Cloudy
8:47 PM 26.6 °F 20.0 °F 17.6 °F 69% 29.98 in 10.0 mi NW 5.8 mph - N/A   Mostly Cloudy
9:47 PM 24.8 °F 17.9 °F 21.2 °F 86% 30.00 in 10.0 mi WNW 5.8 mph - N/A   Clear
10:15 PM 26.6 °F 20.0 °F 21.2 °F 80% 30.00 in 10.0 mi NNW 5.8 mph - N/A   Clear
10:35 PM 23.0 °F 14.7 °F 21.2 °F 93% 30.00 in 10.0 mi NNW 6.9 mph - N/A   Clear
10:47 PM 23.0 °F 15.8 °F 19.4 °F 86% 30.01 in 10.0 mi West 5.8 mph - N/A   Clear
10:55 PM 23.0 °F 15.8 °F 21.2 °F 93% 30.01 in 10.0 mi WNW 5.8 mph - N/A   Clear